DECAYED

NOAA 16 DEB, 41375 (Decayed)

Orbit data source: Space-Track

NOAA 16 DEB, 41375 was space debris in SSO originally from a launch on Thu, 21 Sep 2000 UTC launched from the Air Force Western Test Range (AFWTR). Debris objects in space refer to the collection of defunct objects orbiting the Earth. Examples of debris include non-operational satellites, rocket bodies, and fragments generated from explosions, collisions, or faulty payload assembly.

Not visible in the next 10 days
Identifier
41375, 2000-055JU
Orbit
Decayed
Country
Flag of USUS
Related business
Manufacturer
Unknown
Mission
Decayed spacecraft
Bus & Motor
Unknown
Mass
Unknown
Launch date (UTC)
2000-09-21 (26 years ago)
Launch vehicle
Unknown
Launch site
Air Force Western Test Range (AFWTR)
Object type
Payload
Rocket body
Debris
Shape & HBR
Unknown shape, 0.1 m
Radar Cross Section
Medium (>0.1 m² and <1 m²)

Expand to show TLE details & history
Last TLE update: 1 year ago

TLE from 1 year ago
0 NOAA 16 DEB
1 41375U 00055JU  25163.34767279  .06532411  00000-0  26283-1 0  9996
2 41375  98.8666   0.6581 0016280 274.8895  85.0510 15.82000523487470
Epoch: 2025-06-12T08:20Z
TLE epoch observation values (Epoch: 2025-06-12T08:20:38.929Z)
Latitude
-0°
Longitude
-25.42123°
Altitude
326.987 km
Speed
7.713 km/s
True Right ascension
00h 02m 37s
True Declination
0° 00' 00"
Sunlit
Object was in daylight at epoch
Visualization orbit readout
Latitude
Unknown
Longitude
Unknown
Altitude
Unknown
Speed
Unknown
Apparent Right ascension
Unknown
Apparent Declination
Unknown
Sunlit
N/A
Visualization observer readout
Local Sidereal Time
10:02:26
Azimuth
Unknown
Elevation
Unknown
Doppler factor
Unknown
Orbital elements
Apogee altitude
332.645 km
Perigee altitude
310.831 km
Semi-major axis
6,699.875 km
Eccentricity
0.00163
Inclination
98.8666°
RAAN
0.6581°
Arg. of periapsis
274.8895°
True anomaly
85.23689°
Mean anomaly
85.051°
Eccentric anomaly
85.14394°
Mean motion
3.9577 °/min
Orbital period
90.96 mins
BSTAR
0.026283
Loading maneuver chart data...
Computing Atmospheric mass density...

Documentation

Showing up to 5 results
|